Tegucigalpa, Honduras

5:04 AM CST en Noviembre 24, 2017 (GMT -0600)
Toncontin International

Tiempo Historia de MHTG - Noviembre, 2017

Change the Weather History Date:

Martes, Noviembre 14, 2017

  Actual Average Record
Temperature  
Temperatura media 68 ° F -  
Temperatura máxima 73 ° F 76 ° F 84 ° F (2008)
Temperatura mínima 64 ° F 59 ° F 51 ° F (2010)
Cooling Degree Days 4    
Growing Degree Days 18 (Base 50)    
Moisture  
Punto de rocío 63 ° F    
Average Humidity 81    
Maximum Humidity 94    
Minimum Humidity 62    
Precipitación  
Precipitación 0.08 pul 0.03 pul - ()
Presión al nivel del mar  
Presión al nivel del mar 30.00 pul    
Viento  
Velocidad del viento 10 mph ()    
Velocidad máxima del viento 18 mph    
Max Gust Speed 28 mph    
Visibilidad 6.0 Millas    
Eventos Lluvia    
Averages and records for this station are not official NWS values.
T = Trace of Precipitation, MM = Missing Value Source: Averaged Metar Reports

Daily Weather History Graph

Daily Weather History Graph

Search for Another Location

Airport or City:

Trip Planner

Search our weather history database for the weather conditions in past years. The results will help you decide how hot, cold, wet, or windy it might be!

Date:

Astronomía

Nov. 14, 2017 Salida Puesta
Hora real 5:48 AM CST 5:17 PM CST
Crepúsculo civil 5:26 AM CST 5:40 PM CST
Crepúsculo náutico 5:00 AM CST 6:06 PM CST
Crepúsculo astronómico 4:34 AM CST 6:31 PM CST
Luna 2:36 AM CST (11/14) 2:59 PM CST (11/14)
Horas de luz 12h 13m
Horas de luz
11h 29m
Creciente menguante, 13% of the Moon is Illuminated
Nov 14
Creciente menguante
Nov 18
Nueva
Nov 26
Cuarto creciente
Dic 3
Luna llena
Dic 10
Cuarto menguante

Hourly Weather History & Observations

Hora (CST) Temp. Punto de rocío Humedad Presión Visibilidad Wind Dir Velocidad del viento Velocidad de ráfagas Precip Eventos Condiciones
12:00 AM 66.2 ° F 62.6 ° F 88% 30.04 pul 6.2 mi Norte 11.5 mph - N/A   Muy nublado
1:00 AM 66.2 ° F 62.6 ° F 88% 30.04 pul 6.2 mi Norte 11.5 mph - N/A   Muy nublado
2:00 AM 66.2 ° F 62.6 ° F 88% 30.01 pul 6.2 mi NNE 9.2 mph - N/A   Muy nublado
3:00 AM 66 ° F 62 ° F 83% 29.91 pul 6 mi Norte 11.5 mph - -   Muy nublado
3:00 AM 66.2 ° F 60.8 ° F 83% 30.01 pul 6.2 mi Norte 11.5 mph - N/A   Muy nublado
4:00 AM 64.4 ° F 62.6 ° F 94% 29.98 pul 6.2 mi Norte 12.7 mph - N/A   Muy nublado
5:00 AM 66.2 ° F 62.6 ° F 88% 30.01 pul 6.2 mi Norte 6.9 mph - N/A   Muy nublado
6:00 AM 65 ° F 62 ° F 86% 29.94 pul 2 mi Norte 9.2 mph - -   Bruma
6:00 AM 66.2 ° F 62.6 ° F 88% 30.01 pul 6.2 mi Norte 9.2 mph - N/A   Nubes dispersas
7:00 AM 66.2 ° F 62.6 ° F 88% 30.04 pul 6.2 mi Norte 11.5 mph - N/A   Nubes dispersas
8:00 AM 69.8 ° F 64.4 ° F 83% 30.06 pul 6.2 mi Norte 11.5 mph - N/A   Muy nublado
9:00 AM 71 ° F 64 ° F 71% 29.95 pul 6 mi Norte 11.5 mph - -   Bruma
9:00 AM 71.6 ° F 64.4 ° F 78% 30.06 pul 6.2 mi Norte 11.5 mph - N/A   Muy nublado
10:00 AM 71.6 ° F 62.6 ° F 73% 30.06 pul 6.2 mi NE 13.8 mph - N/A   Nubes dispersas
10:30 AM 73.4 ° F 62.6 ° F 69% 30.04 pul 6.2 mi Norte 11.5 mph 27.6 mph N/A   Nubes dispersas
11:00 AM 73.4 ° F 62.6 ° F 69% 30.04 pul 6.2 mi NNE 18.4 mph - N/A   Nubes dispersas
12:00 PM 74 ° F 64 ° F 62% 29.89 pul 6 mi Norte 18.4 mph - -   Bruma
12:00 PM 73.4 ° F 64.4 ° F 73% 30.01 pul 6.2 mi Norte 18.4 mph - N/A   Nubes dispersas
1:00 PM 73.4 ° F 62.6 ° F 69% 29.98 pul 6.2 mi Norte 13.8 mph - N/A   Nubes dispersas
2:00 PM 73.4 ° F 62.6 ° F 69% 29.98 pul 6.2 mi Norte 13.8 mph - N/A   Muy nublado
3:00 PM 72 ° F 63 ° F 65%  pul 6 mi Norte 16.1 mph - -  
3:00 PM 71.6 ° F 62.6 ° F 73% 29.95 pul 6.2 mi Norte 16.1 mph - N/A   Muy nublado
4:00 PM 71.6 ° F 62.6 ° F 73% 29.95 pul - Norte - - N/A   Muy nublado
5:00 PM 69.8 ° F 62.6 ° F 78% 29.98 pul 6.2 mi Norte 13.8 mph - N/A   Nubes dispersas
6:00 PM 68 ° F 62 ° F 76% 29.89 pul 6 mi Norte 11.5 mph - -   Muy nublado
6:00 PM 68.0 ° F 62.6 ° F 83% 29.98 pul 6.2 mi Norte 11.5 mph - N/A   Nubes dispersas
7:00 PM 68.0 ° F 62.6 ° F 83% 30.01 pul 6.2 mi Norte 11.5 mph - N/A   Nubes dispersas
8:00 PM 66.2 ° F 62.6 ° F 88% 30.04 pul 6.2 mi NE 6.9 mph - N/A   Nubes dispersas
9:00 PM 65 ° F 63 ° F 92% 29.98 pul 6 mi Norte 4.6 mph - - Lluvia Lluvia débil
9:00 PM 64.4 ° F 62.6 ° F 94% 30.06 pul 6.2 mi Norte 4.6 mph - N/A Lluvia Lluvia débil
10:00 PM 64.4 ° F 62.6 ° F 94% 30.06 pul 6.2 mi Norte 9.2 mph - N/A   Muy nublado
11:00 PM 64.4 ° F 62.6 ° F 94% 30.06 pul 6.2 mi Norte 9.2 mph - N/A Lluvia Lluvia débil